Starlink 3789

operational
NORAD ID: 52283 Int'l Des: 2022-041 Owner: SPXS Country: US Constellation: starlink
LEOCIRCULAR

Starlink 3789について

説明を読み込み中...

リアルタイム位置

3D地球を読み込み中...

次回通過

高度履歴

Altitude vs Time

uPlot chart will show altitude changes over time

軌道要素

1 52283U 22041Y 25352.58624344 -.00002711 00000-0 -15232-3 0 9991
2 52283 53.2185 113.2085 0001370 85.4764 274.6384 15.08842663202125
Epoch: Dec 18, 2025 • Age: 9 hours

現在のステータス

高度 555.2 km
速度 7.58 km/s
衛星直下点 -43.59°S, 11.6°W
打ち上げ日 Apr 21, 2022
運用期間 3.6 years
タイプ internet

技術仕様

分類 Payload
質量 297.00 kg
乾燥質量 275.00 kg
総質量 297.00 kg
長さ 0.20 m
直径 2.80 m
スパン 9.00 m
形状 Box + pan
製造者 SPXS
バスタイプ Starlink
フェーズステータス In Orbit
所有者/国 SPXS/US

大規模コンステレーション

Loading constellations...